International Skating Union - Official Site

ISU World Cup Speed Skating Calgary
December 1-3, 2017

Draw | Lap Times | Index | World Cup

Referee: Dan  IMMERFALL  (USA)
Starter: Bruce  LANSER  (USA)
StartTime: EndTime: Air Temp: Ice Temp: Humidity:
12:30 13:13 16.5℃ -8.4℃ 29%
Result 3000m Ladies Division A
Rankings as of Dec 1 2017 1:32PM
Rank: No.: Name: Nation: Time: Behind: Points:
1 259 Miho  Takagi JPN JPN 3:57.09200m - 19.89 - (19.8)
600m - 50.22 - (30.3)
1000m - 1:20.55 - (30.3)
1400m - 1:51.21 - (30.6)
1800m - 2:21.99 - (30.7)
2200m - 2:53.00 - (31.0)
2600m - 3:24.56 - (31.5)
3000m - 3:57.09 - (32.5)
100
2 274 Antoinette  de Jong NED NED 3:57.78200m - 20.56 - (20.5)
600m - 51.19 - (30.6)
1000m - 1:21.64 - (30.4)
1400m - 1:52.10 - (30.4)
1800m - 2:23.05 - (30.9)
2200m - 2:54.35 - (31.3)
2600m - 3:26.05 - (31.7)
3000m - 3:57.78 - (31.7)
0.69 80
3 286 Ireen  Wüst NED NED 3:58.10200m - 19.42 - (19.4)
600m - 49.08 - (29.6)
1000m - 1:19.01 - (29.9)
1400m - 1:49.59 - (30.5)
1800m - 2:20.55 - (30.9)
2200m - 2:52.25 - (31.7)
2600m - 3:24.90 - (32.6)
3000m - 3:58.10 - (33.2)
1.01 70
4 234 Martina  Sáblíková CZE CZE 3:58.93200m - 20.17 - (20.1)
600m - 50.79 - (30.6)
1000m - 1:21.97 - (31.1)
1400m - 1:53.34 - (31.3)
1800m - 2:24.73 - (31.3)
2200m - 2:56.02 - (31.2)
2600m - 3:27.40 - (31.3)
3000m - 3:58.93 - (31.5)
1.84 60
5 245 Claudia  Pechstein GER GER 3:59.13200m - 20.56 - (20.5)
600m - 51.78 - (31.2)
1000m - 1:22.38 - (30.6)
1400m - 1:53.11 - (30.7)
1800m - 2:24.05 - (30.9)
2200m - 2:55.43 - (31.3)
2600m - 3:26.96 - (31.5)
3000m - 3:59.13 - (32.1)
2.04 50
6 207 Marina  Zueva BLR BLR 3:59.54200m - 20.10 - (20.1)
600m - 50.81 - (30.7)
1000m - 1:21.09 - (30.2)
1400m - 1:52.14 - (31.0)
1800m - 2:23.14 - (31.0)
2200m - 2:54.69 - (31.5)
2600m - 3:26.82 - (32.1)
3000m - 3:59.54 - (32.7)
2.45 45
7 308 Natalia  Voronina RUS RUS 3:59.64200m - 19.82 - (19.8)
600m - 50.67 - (30.8)
1000m - 1:21.56 - (30.8)
1400m - 1:52.68 - (31.1)
1800m - 2:24.26 - (31.5)
2200m - 2:55.65 - (31.3)
2600m - 3:27.69 - (32.0)
3000m - 3:59.64 - (31.9)
2.55 40
8 309 Anna  Yurakova RUS RUS 4:01.08200m - 20.57 - (20.5)
600m - 51.15 - (30.5)
1000m - 1:22.12 - (30.9)
1400m - 1:52.91 - (30.7)
1800m - 2:23.80 - (30.8)
2200m - 2:55.34 - (31.5)
2600m - 3:27.61 - (32.2)
3000m - 4:01.08 - (33.4)
3.99 35
9 218 Isabelle  Weidemann CAN CAN 4:02.92200m - 20.76 - (20.7)
600m - 51.42 - (30.6)
1000m - 1:22.64 - (31.2)
1400m - 1:54.09 - (31.4)
1800m - 2:25.70 - (31.6)
2200m - 2:57.60 - (31.9)
2600m - 3:29.90 - (32.3)
3000m - 4:02.92 - (33.0)
5.83 30
10 208 Ivanie  Blondin CAN CAN 4:04.15200m - 20.37 - (20.3)
600m - 51.48 - (31.1)
1000m - 1:22.24 - (30.7)
1400m - 1:53.37 - (31.1)
1800m - 2:24.76 - (31.3)
2200m - 2:56.85 - (32.0)
2600m - 3:29.98 - (33.1)
3000m - 4:04.15 - (34.1)
7.06 25
11 281 Irene  Schouten NED NED 4:04.27200m - 20.28 - (20.2)
600m - 51.81 - (31.5)
1000m - 1:23.72 - (31.9)
1400m - 1:55.65 - (31.9)
1800m - 2:27.48 - (31.8)
2200m - 2:59.66 - (32.1)
2600m - 3:32.04 - (32.3)
3000m - 4:04.27 - (32.2)
7.18 21
12 256 Misaki  Oshigiri JPN JPN 4:04.68200m - 19.97 - (19.9)
600m - 50.20 - (30.2)
1000m - 1:21.20 - (31.0)
1400m - 1:52.51 - (31.3)
1800m - 2:24.49 - (31.9)
2200m - 2:57.14 - (32.6)
2600m - 3:30.57 - (33.4)
3000m - 4:04.68 - (34.1)
7.59 18
13 255 Fuyo  Matsuoka JPN JPN 4:04.97200m - 20.91 - (20.9)
600m - 51.71 - (30.8)
1000m - 1:22.66 - (30.9)
1400m - 1:54.16 - (31.5)
1800m - 2:25.98 - (31.8)
2200m - 2:58.32 - (32.3)
2600m - 3:31.38 - (33.0)
3000m - 4:04.97 - (33.5)
7.88 16
14 265 Bo-Reum  Kim KOR KOR 4:06.41200m - 20.79 - (20.7)
600m - 52.22 - (31.4)
1000m - 1:23.47 - (31.2)
1400m - 1:55.80 - (32.3)
1800m - 2:28.35 - (32.5)
2200m - 3:01.08 - (32.7)
2600m - 3:33.82 - (32.7)
3000m - 4:06.41 - (32.5)
9.32 14
15 317 Carlijn  Schoutens USA USA 4:09.01200m - 20.88 - (20.8)
600m - 52.14 - (31.2)
1000m - 1:23.70 - (31.5)
1400m - 1:55.56 - (31.8)
1800m - 2:28.18 - (32.6)
2200m - 3:01.17 - (32.9)
2600m - 3:34.70 - (33.5)
3000m - 4:09.01 - (34.3)
11.92 12
16 278 Marije  Joling NED NED 4:09.34200m - 20.21 - (20.2)
600m - 52.03 - (31.8)
1000m - 1:24.52 - (32.4)
1400m - 1:57.60 - (33.0)
1800m - 2:31.13 - (33.5)
2200m - 3:04.20 - (33.0)
2600m - 3:36.86 - (32.6)
3000m - 4:09.34 - (32.4)
12.25 10